Frankfort, MI

9:22 AM EDT on September 20, 2017 (GMT -0400)
Frankfort

Weather History for KFKS - August, 2013

Change the Weather History Date:

Thursday, August 22, 2013

  Actual Average (KMBL) Record (KMBL)
Temperature  
Mean Temperature 66 °F -  
Max Temperature 77 °F 76 °F 90 °F (1968)
Min Temperature 56 °F 56 °F 42 °F (1950)
Cooling Degree Days 2    
Growing Degree Days 16 (Base 50)    
Moisture  
Dew Point 61 °F    
Average Humidity 79    
Maximum Humidity 94    
Minimum Humidity 42    
Precipitation  
Precipitation 0.00 in - - ()
Sea Level Pressure  
Sea Level Pressure 30.05 in    
Wind  
Wind Speed 4 mph (NNW)    
Max Wind Speed 12 mph    
Max Gust Speed 20 mph    
Visibility 9 miles    
Events Rain    
Averages and records for this station are not official NWS values.
T = Trace of Precipitation, MM = Missing Value Source: NWS Daily Summary

Daily Weather History Graph

Daily Weather History Graph

Search for Another Location

Airport or City:

Trip Planner

Search our weather history database for the weather conditions in past years. The results will help you decide how hot, cold, wet, or windy it might be!

Date:

Astronomy

Aug. 22, 2013 Rise Set
Actual Time 6:55 AM EDT 8:38 PM EDT
Civil Twilight 6:24 AM EDT 9:09 PM EDT
Nautical Twilight 5:47 AM EDT 9:46 PM EDT
Astronomical Twilight 5:06 AM EDT 10:27 PM EDT
Moon 9:13 PM EDT (8/22) 8:50 AM EDT (8/22)
Length of Visible Light 14h 44m
Length of Day
13h 42m
Waning Gibbous, 97% of the Moon is Illuminated
Aug 22
Waning Gibbous
Aug 28
Last Quarter
Sep 5
New
Sep 12
First Quarter
Sep 19
Full

Hourly Weather History & Observations

Time (EDT) Temp. Dew Point Humidity Pressure Visibility Wind Dir Wind Speed Gust Speed Precip Events Conditions
12:15 AM 67.3 °F 64.2 °F 90% 29.99 in 10.0 mi WNW 11.5 mph 19.6 mph N/A Rain Light Rain
12:35 AM 67.1 °F 64.4 °F 91% 29.98 in 10.0 mi Calm Calm - N/A   Scattered Clouds
12:55 AM 66.4 °F 64.4 °F 93% 29.96 in 10.0 mi Calm Calm - N/A   Clear
1:15 AM 65.3 °F 63.3 °F 93% 29.95 in 10.0 mi West 3.5 mph - N/A   Clear
1:36 AM 64.9 °F 63.0 °F 93% 29.95 in 10.0 mi Calm Calm - N/A   Clear
1:56 AM 64.4 °F 62.6 °F 94% 29.94 in 10.0 mi Calm Calm - N/A   Clear
2:16 AM 63.9 °F 62.1 °F 94% 29.94 in 7.0 mi Calm Calm - N/A   Clear
2:36 AM 63.7 °F 61.9 °F 94% 29.94 in 7.0 mi Calm Calm - N/A   Clear
2:56 AM 63.9 °F 62.1 °F 94% 29.96 in 10.0 mi Calm Calm - N/A   Clear
3:16 AM 62.8 °F 61.2 °F 94% 29.99 in 10.0 mi West 4.6 mph - N/A   Clear
3:31 AM 67.1 °F 65.3 °F 94% 30.00 in 10.0 mi WSW 4.6 mph - N/A   Scattered Clouds
3:51 AM 67.6 °F 65.3 °F 92% 30.00 in 10.0 mi West 5.8 mph - N/A   Mostly Cloudy
4:11 AM 67.3 °F 64.4 °F 90% 30.00 in 10.0 mi West 9.2 mph - N/A   Scattered Clouds
4:32 AM 67.8 °F 64.4 °F 89% 30.02 in 10.0 mi West 6.9 mph - N/A   Clear
4:52 AM 68.0 °F 64.8 °F 89% 30.02 in 10.0 mi West 6.9 mph - N/A   Mostly Cloudy
5:12 AM 68.2 °F 65.3 °F 90% 30.03 in 10.0 mi WNW 5.8 mph - N/A   Overcast
5:32 AM 68.2 °F 65.3 °F 90% 30.02 in 10.0 mi Calm Calm - N/A   Overcast
5:52 AM 67.5 °F 64.9 °F 92% 30.02 in 10.0 mi SW 3.5 mph - N/A   Mostly Cloudy
6:12 AM 67.5 °F 65.1 °F 92% 30.03 in 10.0 mi Calm Calm - N/A   Overcast
6:32 AM 67.5 °F 65.1 °F 92% 30.03 in 7.0 mi Calm Calm - N/A   Overcast
6:52 AM 67.3 °F 64.9 °F 92% 30.04 in 7.0 mi Calm Calm - N/A   Mostly Cloudy
7:13 AM 67.5 °F 65.1 °F 92% 30.04 in 5.0 mi Calm Calm - N/A   Overcast
7:33 AM 67.5 °F 64.9 °F 92% 30.03 in 5.0 mi Calm Calm - N/A   Mostly Cloudy
7:53 AM 67.3 °F 65.1 °F 93% 30.02 in 4.0 mi Calm Calm - N/A   Mostly Cloudy
8:13 AM 67.5 °F 65.3 °F 93% 30.02 in 4.0 mi Calm Calm - N/A   Mostly Cloudy
8:33 AM 68.0 °F 65.7 °F 92% 30.02 in 4.0 mi Calm Calm - N/A   Mostly Cloudy
8:53 AM 68.7 °F 66.2 °F 92% 30.03 in 4.0 mi Calm Calm - N/A   Overcast
9:13 AM 69.1 °F 66.2 °F 91% 30.04 in 5.0 mi NW 3.5 mph - N/A   Overcast
9:33 AM 69.1 °F 65.8 °F 89% 30.04 in 7.0 mi NW 4.6 mph - N/A   Overcast
9:54 AM 69.4 °F 66.4 °F 90% 30.04 in 7.0 mi NW 4.6 mph - N/A   Overcast
10:14 AM 69.1 °F 66.2 °F 91% 30.05 in 7.0 mi NNE 3.5 mph - N/A   Overcast
10:34 AM 68.9 °F 66.2 °F 91% 30.07 in 5.0 mi NNW 3.5 mph - N/A   Overcast
10:54 AM 69.8 °F 66.0 °F 88% 30.07 in 10.0 mi NNW 3.5 mph - N/A   Overcast
11:14 AM 71.2 °F 65.8 °F 83% 30.07 in 10.0 mi NNE 5.8 mph - N/A   Mostly Cloudy
11:34 AM 72.0 °F 65.1 °F 79% 30.08 in 10.0 mi NE 3.5 mph - N/A   Scattered Clouds
11:54 AM 72.5 °F 64.9 °F 77% 30.08 in 10.0 mi North 5.8 mph - N/A   Clear
12:14 PM 71.8 °F 64.0 °F 77% 30.08 in 10.0 mi Calm Calm - N/A   Clear
12:35 PM 72.9 °F 64.2 °F 74% 30.08 in 10.0 mi NNW 4.6 mph - N/A   Clear
12:55 PM 73.9 °F 64.2 °F 72% 30.08 in 10.0 mi Calm Calm - N/A   Clear
1:15 PM 74.8 °F 64.6 °F 70% 30.07 in 10.0 mi North 4.6 mph - N/A   Clear
1:35 PM 74.1 °F 62.1 °F 66% 30.07 in 10.0 mi NNE 6.9 mph - N/A   Clear
1:55 PM 74.7 °F 61.2 °F 63% 30.07 in 10.0 mi North 5.8 mph - N/A   Clear
2:15 PM 74.8 °F 61.9 °F 64% 30.08 in 10.0 mi North 5.8 mph - N/A   Clear
2:35 PM 74.8 °F 61.9 °F 64% 30.08 in 10.0 mi North 8.1 mph - N/A   Clear
2:55 PM 73.4 °F 63.0 °F 70% 30.09 in 10.0 mi North 6.9 mph - N/A   Clear
3:16 PM 73.9 °F 61.5 °F 65% 30.09 in 10.0 mi North 5.8 mph - N/A   Clear
3:36 PM 75.4 °F 60.8 °F 60% 30.08 in 10.0 mi Calm Calm - N/A   Clear
3:56 PM 77.2 °F 57.4 °F 50% 30.08 in 10.0 mi NNE 5.8 mph - N/A   Clear
4:16 PM 77.0 °F 52.9 °F 43% 30.08 in 10.0 mi North 5.8 mph - N/A   Clear
4:36 PM 76.8 °F 52.3 °F 42% 30.08 in 10.0 mi North 6.9 mph - N/A   Clear
4:56 PM 77.0 °F 53.4 °F 44% 30.07 in 10.0 mi North 5.8 mph - N/A   Clear
5:11 PM 76.8 °F 54.0 °F 45% 30.07 in 10.0 mi North 6.9 mph - N/A   Clear
5:31 PM 76.5 °F 53.4 °F 45% 30.07 in 10.0 mi North 8.1 mph - N/A   Clear
5:52 PM 75.7 °F 52.5 °F 44% 30.07 in 10.0 mi North 6.9 mph - N/A   Clear
6:12 PM 75.9 °F 54.5 °F 47% 30.07 in 10.0 mi NNE 9.2 mph - N/A   Clear
6:32 PM 75.4 °F 55.6 °F 50% 30.07 in 10.0 mi North 3.5 mph - N/A   Clear
6:52 PM 74.7 °F 56.1 °F 52% 30.07 in 10.0 mi NNE 5.8 mph - N/A   Clear
7:12 PM 74.1 °F 56.3 °F 54% 30.07 in 10.0 mi NNE 4.6 mph - N/A   Clear
7:32 PM 73.0 °F 56.1 °F 55% 30.08 in 10.0 mi North 4.6 mph - N/A   Clear
7:52 PM 72.5 °F 55.8 °F 56% 30.08 in 10.0 mi Calm Calm - N/A   Clear
8:12 PM 70.7 °F 56.8 °F 61% 30.08 in 10.0 mi Calm Calm - N/A   Clear
8:32 PM 66.9 °F 58.1 °F 73% 30.08 in 10.0 mi Calm Calm - N/A   Clear
8:53 PM 62.6 °F 57.6 °F 84% 30.09 in 10.0 mi NE 3.5 mph - N/A   Clear
9:13 PM 62.1 °F 57.2 °F 84% 30.10 in 10.0 mi Calm Calm - N/A   Clear
9:33 PM 60.8 °F 57.0 °F 87% 30.10 in 10.0 mi Calm Calm - N/A   Clear
9:53 PM 59.9 °F 56.3 °F 88% 30.11 in 10.0 mi Calm Calm - N/A   Clear
10:13 PM 59.9 °F 55.9 °F 87% 30.11 in 10.0 mi Calm Calm - N/A   Clear
10:33 PM 58.3 °F 55.6 °F 91% 30.12 in 10.0 mi Calm Calm - N/A   Clear
10:53 PM 58.1 °F 55.4 °F 91% 30.12 in 10.0 mi Calm Calm - N/A   Clear
11:14 PM 56.5 °F 54.0 °F 91% 30.13 in 10.0 mi Calm Calm - N/A   Clear
11:34 PM 57.0 °F 54.3 °F 91% 30.13 in 10.0 mi Calm Calm - N/A   Clear
11:54 PM 56.3 °F 54.0 °F 92% 30.13 in 10.0 mi Calm Calm - N/A   Clear